Flag for Austria Weather past 2 weeks in Bruck an der Leitha, Lower Austria, Austria

53 °F

Passing clouds.

Feels Like: 47 °F
Forecast: 40 / 54 °F
Wind: 18 mph from West

Location: Wien / Schwechat-Flughafen

Current Time: Dec 1, 2015 at 9:05:18 AM

Latest Report: Dec 1, 2015 at 7:00 AM

Visibility: 31 mi

Pressure: 29.99 "Hg

Humidity: 64%

Dew point: 41 °F

Location of Bruck an der LeithaLocation

Historic Weather in Bruck an der Leitha — Graph


Bruck an der Leitha temperature yesterday

Maximum temperature yesterday: 55 °F (at 10:00 AM)
Minimum temperature yesterday: 45 °F (at 5:00 PM)
Average temperature yesterday: 52 °F

Past Weeks' High & Low Weather Summary

High69 °F (Nov 18, 1:00 PM)96% (Nov 20, 4:00 PM)30.38 "Hg (Nov 20, 4:00 PM)
Low23 °F (Nov 25, 3:00 AM)33% (Nov 29, 12:00 PM)29.41 "Hg (Nov 20, 9:00 PM)
Average45 °F69%29.95 "Hg
* Reported Nov 16 7:00 AM — Dec 1 7:00 AM, Bruck an der Leitha, Weather by CustomWeather, © 2015

Note: Actual official high and low records may vary slightly from our data, if they occured in-between our weather recording intervals... More about our weather records


Bruck an der Leitha weather history for previous 24 hours

Time TempWeatherWind HumidityBarometerVisibility
7:00 AM
Tue, Dec 1
53 °FPassing clouds.18 mph64%29.99 "Hg31 mi
6:00 AM53 °FPassing clouds.17 mph64%29.99 "Hg31 mi
4:00 AM52 °FOvercast.17 mph63%29.94 "Hg31 mi
3:00 AM53 °FOvercast.17 mph60%29.95 "Hg14 mi
1:00 AM55 °FOvercast.14 mph50%29.99 "Hg31 mi
10:00 PM
Mon, Nov 30
54 °FOvercast.12 mph56%30.03 "Hg31 mi
9:00 PM53 °FOvercast.12 mph58%30.04 "Hg28 mi
8:00 PM53 °FOvercast.10 mph61%30.07 "Hg31 mi
7:00 PM51 °FRain showers. Overcast.9 mph75%30.10 "Hg31 mi
6:00 PM45 °FOvercast.N/A94%30.12 "Hg25 mi
5:00 PM45 °FOvercast.6 mph92%30.10 "Hg17 mi
4:00 PM46 °FRain showers. Overcast.9 mph89%30.12 "Hg4 mi
3:00 PM47 °FSprinkles. Overcast.10 mph91%30.12 "Hg2 mi
2:00 PM55 °FPartly sunny.17 mph58%30.06 "Hg25 mi
1:00 PM54 °FPartly sunny.16 mph59%30.06 "Hg22 mi
12:00 PM55 °FPartly sunny.17 mph56%30.05 "Hg28 mi
11:00 AM55 °FPartly sunny.18 mph55%30.04 "Hg28 mi
10:00 AM55 °FPartly sunny.18 mph55%30.01 "Hg28 mi
9:00 AM54 °FPartly sunny.17 mph54%29.99 "Hg31 mi
Weather by CustomWeather, © 2015

See weather overviewHow to use our weather pages